Regional Weather Roundup
Issued by NWS

Home | Current Version | Previous Version | Text Only | Print | Product List | Glossary On
Versions: 1 2 3 4 5 6 7 8 9 10 11 12 13 14 15 16 17 18 19 20 21 22 23 24 25 26 27 28 29 30 31 32 33 34 35 36 37 38 39 40 41 42 43 44 45 46 47 48 49 50
000
ASUS44 KBMX 311310
RWRAL

ALABAMA REGIONAL WEATHER ROUNDUP
NATIONAL WEATHER SERVICE BIRMINGHAM AL
800 AM CDT FRI JUL 31 2015

NOTE: "FAIR" INDICATES FEW OR NO CLOUDS BELOW 12,000 FEET
WITH NO SIGNIFICANT WEATHER AND/OR OBSTRUCTIONS TO VISIBILITY.

THE REMARK "TC" DENOTES TEMPERATURE IN DEGREES CELSIUS.

ALZ001>011-014-016>018-020-311400-
NORTH ALABAMA

CITY           SKY/WX    TMP DP  RH WIND       PRES   REMARKS
MUSCLE SHOALS  SUNNY     75  61  61 VRB7      30.10R
HUNTSVILLE     MOSUNNY   76  62  62 N7        30.08R
DECATUR        SUNNY     72  65  78 N6        30.09R
HALEYVILLE     FAIR      72  63  73 N6        30.11R
GADSDEN        SUNNY     73  57  56 N9        30.03R
$$

ALZ012-013-022-023-030>036-040>044-311400-
WEST CENTRAL ALABAMA

CITY           SKY/WX    TMP DP  RH WIND       PRES   REMARKS
TUSCALOOSA     SUNNY     76  63  64 N13       30.02R
$$

ALZ015-024>027-033>036-040>044-311400-
CENTRAL ALABAMA

CITY           SKY/WX    TMP DP  RH WIND       PRES   REMARKS
BIRMINGHAM     MOSUNNY   75  63  66 N7        30.06R
MONTGOMERY     SUNNY     80  67  64 N8        29.97R
SHELBY CO ARPT SUNNY     77  62  59 VRB6      30.02R
MAXWELL AFB    SUNNY     78  68  70 N10       29.96R
GREENVILLE     FAIR      81  68  64 NE8       29.96R
$$

ALZ019-021-028-029-037-038-045>048-311400-
EAST CENTRAL ALABAMA

CITY           SKY/WX    TMP DP  RH WIND       PRES   REMARKS
ANNISTON       SUNNY     76  62  62 N8        30.02R
ALEXANDER CITY SUNNY     77  62  60 NE5       30.00R
AUBURN         SUNNY     75  70  83 N10       29.99R
$$

ALZ051>064-311400-
SOUTHWEST ALABAMA

CITY           SKY/WX    TMP DP  RH WIND       PRES   REMARKS
MOBILE         MOSUNNY   78  71  79 N12       29.95S
BROOKLEY FIELD SUNNY     80  71  74 N8        29.95R
EVERGREEN      SUNNY     79  71  76 NE7       29.96R
$$

ALZ049-050-065>069-311400-
SOUTHEAST ALABAMA

CITY           SKY/WX    TMP DP  RH WIND       PRES   REMARKS
DOTHAN         MOSUNNY   78  75  90 SE5       29.99R
OZARK          MOSUNNY   78  76  96 E2        29.95R
TROY           SUNNY     81  71  71 N7        29.97R
EUFAULA        FAIR      81  74  79 VRB5      29.94R
$$


USA.gov is the U.S. government's official web portal to all federal, state and local government web resources and services.